[[{"header":{"parameterUnit":"m.s-1","parameterCategory":1,"la1":30.2991,"la2":30.254,"lo1":-89.0895,"lo2":-89.0444,"dy":0.0017,"dx":0.0017,"nx":28,"ny":28,"refTime":"2024-05-05T09:00:00:Z","depth":0,"parameterNumber":2,"parameterNumberName":"U-component_of_WINDS"},"data":[0,0,0,0,0,0,0,0,0,0,0,0,0,0,0,0,0,0,0,0,0,0,0,0,0,0,0,0,0,0,0,0,0,0,0,0,0,0,0,0,0,0,0,0,0,0,0,0,0,0,0,0,0,0,0,0,0,0,-2.0791,-2.0792,0,-2.0838,-2.0838,-2.0839,-2.0826,-2.0825,-2.0824,-2.0823,-2.0868,-2.087,-2.0872,0,0,0,0,0,0,0,0,0,0,0,0,0,-2.069,-2.0692,-2.0791,-2.0792,-2.0792,-2.0838,-2.0838,-2.0839,-2.0826,-2.0825,-2.0824,-2.0823,-2.0867,-2.087,-2.0872,0,0,0,0,0,0,0,0,0,0,0,0,0,-2.0735,-2.0692,-2.0791,-2.0792,-2.0792,-2.0837,-2.0838,-2.0839,-2.0826,-2.0825,-2.0823,-2.0822,-2.0866,-2.0869,-2.0872,-2.0919,0,0,-2.0882,-2.0883,0,0,0,0,0,0,0,0,-2.0732,-2.0738,-2.0791,-2.0792,-2.0792,-2.0825,-2.0819,-2.0866,-2.0827,-2.0813,-2.0823,-2.0821,-2.0854,-2.0858,-2.087,-2.0922,-2.0923,-2.0882,-2.0884,-2.0885,-2.0886,0,0,0,0,0,0,0,-2.0729,-2.0736,-2.081,-2.0792,-2.0793,-2.0789,-2.0794,-2.0828,-2.0841,-2.0814,-2.0813,-2.0819,-2.0854,-2.0867,-2.0871,-2.0924,-2.0882,-2.0885,-2.0887,-2.0888,-2.1017,-2.1018,0,0,0,0,0,0,-2.0726,-2.0734,-2.0808,-2.0811,-2.0758,-2.0792,-2.0797,-2.0816,-2.0841,-2.0843,-2.082,-2.0818,-2.0862,-2.0867,-2.0873,-2.0929,-2.0885,-2.0888,-2.089,-2.1015,-2.1017,-2.1019,0,0,0,0,0,0,-2.0724,-2.0732,-2.0806,-2.0772,-2.0781,-2.0795,-2.0816,-2.0817,-2.083,-2.0845,-2.0847,-2.0831,-2.0862,-2.0868,-2.0908,-2.0931,-2.089,-2.0892,-2.1013,-2.1016,-2.1018,-2.1043,0,0,0,0,0,0,-2.0721,-2.0732,-2.075,-2.0773,-2.0783,-2.0842,-2.0817,-2.0819,-2.0835,-2.0833,-2.0856,-2.0858,-2.0861,-2.0904,-2.0911,-2.0934,-2.0895,-2.1011,-2.1014,-2.1017,-2.104,-2.1046,-2.1051,0,0,0,0,0,-2.0717,-2.0755,-2.0751,-2.076,-2.0807,-2.0843,-2.0849,-2.0852,-2.0837,-2.0856,-2.0866,-2.0857,-2.0927,-2.0908,-2.0916,-2.094,-2.101,-2.1013,-2.1017,-2.1038,-2.1045,-2.1051,0,0,0,0,0,0,-2.0734,-2.0758,-2.0754,-2.08,-2.082,-2.0841,-2.0864,-2.086,-2.0883,-2.088,-2.0882,-2.0887,-2.0928,-2.0938,-2.0916,-2.0987,-2.0966,-2.0972,-2.0979,-2.0986,-2.0991,-2.0988,-2.0897,0,0,0,0,0,-2.0743,-2.0771,-2.079,-2.0829,-2.0839,-2.085,-2.0866,-2.0867,-2.0887,-2.0895,-2.0908,-2.0927,-2.0953,-2.097,-2.0995,-2.1042,-2.1046,-2.1063,-2.1068,-2.1072,-2.1077,-2.1102,-2.111,-2.103,-2.103,-2.103,0,0,-2.0762,-2.0778,-2.0796,-2.0833,-2.0848,-2.0877,-2.0857,-2.0888,-2.0909,-2.0899,-2.0938,-2.0948,-2.097,-2.1013,-2.1033,-2.1023,-2.11,-2.1077,-2.108,-2.1082,-2.1107,-2.1114,-2.1121,-2.1033,-2.1032,-2.1032,0,0,-2.0811,-2.0827,-2.0861,-2.0877,-2.0901,-2.0908,-2.0916,-2.0938,-2.0944,-2.0984,-2.0977,-2.1002,-2.1047,-2.1062,-2.1076,-2.1132,-2.1125,-2.114,-2.1167,-2.1192,-2.1198,-2.1204,-2.1224,-2.1231,-2.1144,-2.1145,-2.1145,0,-2.0831,-2.0875,-2.0879,-2.0911,-2.0927,-2.0921,-2.0955,-2.097,-2.1,-2.1012,-2.1,-2.1057,-2.1071,-2.1118,-2.1132,-2.1143,-2.1152,-2.1137,-2.1197,-2.1203,-2.1208,-2.1227,-2.1234,-2.1146,-2.1146,-2.1146,-2.1146,0,-2.0898,-2.0929,-2.0953,-2.0984,-2.1003,-2.1036,-2.1045,-2.1063,-2.1063,-2.1071,-2.1111,-2.1128,-2.1156,-2.1167,-2.1167,-2.1215,-2.1207,-2.1197,-2.1175,-2.1217,-2.1235,-2.1242,-2.1149,-2.1148,-2.1147,-2.1147,0,0,-2.0958,-2.0991,-2.1,-2.1014,-2.104,-2.1063,-2.1096,-2.1125,-2.1141,-2.1162,-2.1189,-2.1228,-2.1218,-2.1234,-2.1235,-2.1257,-2.13,-2.1243,-2.1244,-2.1253,-2.1353,-2.1361,-2.1369,-2.1296,-2.1297,-2.1298,-2.1351,0,-2.1009,-2.1068,-2.1073,-2.1125,-2.1153,-2.1147,-2.1176,-2.1194,-2.1203,-2.1227,-2.1236,-2.1264,-2.1249,-2.1259,-2.128,-2.129,-2.132,-2.1286,-2.132,-2.1321,-2.1315,-2.1379,-2.1387,-2.1436,-2.1358,-2.136,-2.136,0,-2.1077,-2.1101,-2.1156,-2.1179,-2.1191,-2.1216,-2.1243,-2.1267,-2.1288,-2.1292,-2.131,-2.1309,-2.1342,-2.132,-2.1365,-2.1342,-2.1356,-2.1363,-2.1365,-2.1368,-2.1343,-2.1383,-2.1452,-2.1459,-2.1371,-2.137,-2.137,0,-2.1115,-2.1161,-2.12,-2.1212,-2.124,-2.1258,-2.127,-2.1289,-2.1307,-2.133,-2.1341,-2.1367,-2.1381,-2.1402,-2.1407,-2.1391,-2.1452,-2.1431,-2.1456,-2.1456,-2.1469,-2.1468,-2.1541,-2.1479,-2.1479,-2.1479,-2.1478,0,-2.1171,-2.1205,-2.1218,-2.1242,-2.1279,-2.1285,-2.1322,-2.1333,-2.135,-2.1376,-2.1373,-2.1397,-2.1403,-2.1427,-2.1432,-2.1468,-2.1475,-2.1479,-2.148,-2.1479,-2.1479,-2.1488,-2.1485,-2.1481,-2.148,-2.148,-2.1479,0,-2.122,-2.123,-2.1272,-2.1295,-2.1301,-2.1328,-2.1347,-2.137,-2.1378,-2.1411,-2.1419,-2.1431,-2.1461,-2.1468,-2.1503,-2.1506,-2.1549,-2.1546,-2.1542,-2.1542,-2.1567,-2.1564,-2.1648,-2.1659,-2.159,-2.1591,-2.1591,0,-2.1255,-2.1281,-2.1307,-2.1324,-2.1337,-2.1365,-2.1383,-2.1389,-2.1407,-2.1434,-2.1453,-2.1482,-2.1506,-2.1552,-2.1564,-2.1591,-2.1589,-2.1616,-2.1592,-2.1591,-2.1589,-2.1587,-2.1589,-2.162,-2.1621,-2.1622,-2.1622,0,-2.1316,-2.132,-2.1346,-2.1374,-2.1395,-2.1418,-2.1439,-2.1453,-2.1462,-2.1482,-2.1513,-2.1531,-2.1567,-2.1596,-2.1622,-2.1634,-2.163,-2.163,-2.1637,-2.1637,-2.1633,-2.1635,-2.1554,-2.1628,-2.1627,-2.1627,-2.1626,-2.1626,-2.1359,-2.1382,-2.1404,-2.1433,-2.145,-2.147,-2.1493,-2.1504,-2.153,-2.156,-2.1562,-2.1595,-2.1615,-2.1651,-2.1664,-2.1689,-2.1681,-2.1691,-2.1694,-2.1697,-2.1699,-2.1629,-2.1694,-2.1694,-2.1694,-2.1694,-2.1694,0,-2.142,-2.1434,-2.1461,-2.1491,-2.1514,-2.1509,-2.1532,-2.1551,-2.158,-2.16,-2.1624,-2.1658,-2.1686,-2.1701,-2.1728,-2.1746,-2.1744,-2.1753,-2.1751,-2.1754,-2.1705,-2.1695,-2.1753,-2.1753,-2.1753,-2.1753,-2.1753,-2.1753,-2.1454,-2.1493,-2.15,-2.1547,-2.156,-2.1593,-2.1607,-2.1625,-2.1641,-2.168,-2.1704,-2.1713,-2.1731,-2.176,-2.1785,-2.1788,-2.1798,-2.1808,-2.181,-2.1764,-2.1757,-2.1752,-2.1743,-2.181,-2.181,-2.1857,-2.1858,-2.1858]},{"header":{"parameterUnit":"m.s-1","parameterCategory":1,"la1":30.2991,"la2":30.254,"lo1":-89.0895,"lo2":-89.0444,"dy":0.0017,"dx":0.0017,"nx":28,"ny":28,"refTime":"2024-05-05T09:00:00:Z","depth":0,"parameterNumber":3,"parameterNumberName":"V-component_of_WINDS"},"data":[0,0,0,0,0,0,0,0,0,0,0,0,0,0,0,0,0,0,0,0,0,0,0,0,0,0,0,0,0,0,0,0,0,0,0,0,0,0,0,0,0,0,0,0,0,0,0,0,0,0,0,0,0,0,0,0,0,0,2.4025,2.4026,0,2.4058,2.4058,2.4059,2.4045,2.4044,2.4043,2.4043,2.4074,2.4075,2.4077,0,0,0,0,0,0,0,0,0,0,0,0,0,2.3946,2.3948,2.4025,2.4026,2.4026,2.4058,2.4058,2.4059,2.4045,2.4044,2.4043,2.4042,2.4073,2.4075,2.4077,0,0,0,0,0,0,0,0,0,0,0,0,0,2.398,2.3948,2.4025,2.4023,2.4023,2.4058,2.4058,2.4059,2.4045,2.4044,2.4043,2.4042,2.4073,2.4075,2.4077,2.4115,0,0,2.4084,2.4085,0,0,0,0,0,0,0,0,2.3978,2.3983,2.4023,2.4023,2.4023,2.4046,2.4042,2.4078,2.4045,2.4037,2.4043,2.4041,2.4065,2.4068,2.4077,2.4117,2.4118,2.4084,2.4086,2.4087,2.4088,0,0,0,0,0,0,0,2.3976,2.3981,2.4038,2.4023,2.4024,2.4019,2.4023,2.4049,2.4057,2.4037,2.4036,2.4041,2.4065,2.4075,2.4077,2.4118,2.4084,2.4087,2.4088,2.4089,2.4188,2.419,0,0,0,0,0,0,2.3974,2.398,2.4037,2.4039,2.3997,2.4021,2.4025,2.404,2.4057,2.4058,2.4042,2.404,2.4071,2.4075,2.4079,2.4122,2.4087,2.4089,2.409,2.4187,2.4189,2.419,0,0,0,0,0,0,2.3972,2.3979,2.4036,2.4009,2.4016,2.4024,2.4041,2.4041,2.4051,2.406,2.4061,2.405,2.407,2.4075,2.4106,2.4123,2.409,2.4092,2.4186,2.4188,2.4189,2.4211,0,0,0,0,0,0,2.397,2.3979,2.3994,2.401,2.4017,2.4064,2.4042,2.4043,2.4055,2.4053,2.4068,2.407,2.407,2.4102,2.4108,2.4126,2.4094,2.4184,2.4187,2.4189,2.4209,2.4214,2.4218,0,0,0,0,0,2.3967,2.3999,2.3995,2.4002,2.4037,2.4065,2.4069,2.4069,2.4057,2.4071,2.4077,2.4069,2.4121,2.4106,2.4112,2.4131,2.4183,2.4186,2.4189,2.4207,2.4213,2.4218,0,0,0,0,0,0,2.3985,2.4001,2.3997,2.4035,2.4049,2.4062,2.4081,2.4076,2.4093,2.409,2.4089,2.4093,2.4124,2.4131,2.4113,2.4167,2.415,2.4154,2.4162,2.4167,2.4171,2.4168,2.4096,0,0,0,0,0,2.3994,2.4016,2.4028,2.406,2.4067,2.4073,2.4085,2.4084,2.4098,2.4104,2.4112,2.4124,2.4143,2.4156,2.4174,2.421,2.4212,2.4226,2.423,2.4234,2.4237,2.4254,2.426,2.4199,2.4199,2.4199,0,0,2.4011,2.4023,2.4036,2.4064,2.4075,2.4096,2.4078,2.4102,2.4117,2.4107,2.4136,2.4142,2.4156,2.4189,2.4204,2.4196,2.4254,2.4237,2.424,2.4241,2.4258,2.4264,2.4269,2.4201,2.4201,2.42,0,0,2.4053,2.4065,2.4092,2.4103,2.4119,2.4123,2.4129,2.4143,2.4147,2.4177,2.4169,2.4186,2.422,2.4229,2.4239,2.4283,2.4275,2.4289,2.4311,2.4328,2.4333,2.4337,2.4351,2.4356,2.4292,2.4292,2.4292,0,2.4073,2.4106,2.4107,2.4131,2.4142,2.4134,2.416,2.417,2.4191,2.4199,2.4189,2.4229,2.4239,2.4273,2.4283,2.4292,2.4298,2.4287,2.4332,2.4336,2.434,2.4353,2.4359,2.4294,2.4294,2.4293,2.4293,0,2.4127,2.415,2.417,2.419,2.4204,2.4229,2.4232,2.4246,2.4244,2.4247,2.4276,2.4287,2.4306,2.4314,2.4312,2.4347,2.4341,2.4332,2.4314,2.4347,2.4359,2.4365,2.4296,2.4295,2.4295,2.4294,0,0,2.4182,2.4202,2.4209,2.4217,2.4234,2.4251,2.4274,2.4294,2.4304,2.4319,2.4337,2.4365,2.4356,2.4366,2.4365,2.4381,2.4412,2.4369,2.4369,2.4375,2.4449,2.4455,2.4461,2.4408,2.4409,2.441,2.4447,0,2.4224,2.4266,2.4267,2.4305,2.4325,2.4317,2.4337,2.4349,2.4353,2.4369,2.4374,2.4392,2.438,2.4386,2.4401,2.4405,2.4427,2.4403,2.4423,2.4424,2.4418,2.4468,2.4474,2.4509,2.4452,2.4453,2.4454,0,2.4279,2.4295,2.4335,2.4347,2.4355,2.4373,2.439,2.4406,2.4418,2.442,2.4431,2.4428,2.445,2.4433,2.4462,2.4446,2.4455,2.4458,2.4459,2.446,2.444,2.4468,2.452,2.4525,2.4462,2.4461,2.4461,0,2.4312,2.4343,2.4371,2.4378,2.4394,2.4406,2.4413,2.4424,2.4435,2.4449,2.4456,2.4473,2.4481,2.4494,2.4494,2.4481,2.4523,2.4506,2.4524,2.4524,2.4532,2.4531,2.4585,2.454,2.454,2.454,2.454,0,2.4357,2.4382,2.4386,2.4402,2.4429,2.4429,2.4455,2.446,2.447,2.4486,2.4481,2.4496,2.4497,2.4512,2.4513,2.4536,2.454,2.4541,2.454,2.4541,2.454,2.4545,2.4542,2.4541,2.4541,2.4541,2.4541,0,2.4398,2.4402,2.4431,2.4443,2.4446,2.4465,2.4474,2.449,2.4493,2.4514,2.4519,2.4524,2.4541,2.4543,2.4564,2.4564,2.4591,2.4589,2.4587,2.4586,2.4603,2.46,2.466,2.4667,2.462,2.462,2.4621,0,2.4427,2.4445,2.4458,2.4469,2.4477,2.4494,2.4505,2.4506,2.4517,2.4531,2.4544,2.4561,2.4575,2.4603,2.4608,2.4623,2.462,2.464,2.4622,2.4621,2.4618,2.4616,2.4617,2.4643,2.4643,2.4644,2.4644,0,2.4475,2.4476,2.4492,2.4508,2.4521,2.4534,2.4546,2.4555,2.4557,2.4569,2.4587,2.4598,2.4619,2.4635,2.465,2.4655,2.4649,2.465,2.4654,2.4654,2.4651,2.4651,2.4595,2.4648,2.4648,2.4647,2.4647,2.4647,2.4509,2.4525,2.4536,2.4553,2.4562,2.4573,2.4587,2.4592,2.4608,2.4624,2.4624,2.4643,2.4653,2.4672,2.4679,2.4693,2.4686,2.4693,2.4695,2.4696,2.4697,2.465,2.4696,2.4696,2.4696,2.4696,2.4696,0,2.4556,2.4563,2.4579,2.4596,2.4609,2.4603,2.4615,2.4626,2.4644,2.4654,2.4667,2.4687,2.4702,2.4708,2.4723,2.4733,2.4731,2.4737,2.4735,2.4736,2.4703,2.4697,2.4738,2.4738,2.4738,2.4738,2.4738,2.4738,2.4582,2.4607,2.4608,2.4636,2.4643,2.4662,2.4669,2.4679,2.4686,2.4709,2.4722,2.4725,2.4733,2.4748,2.4762,2.4763,2.4768,2.4775,2.4775,2.4743,2.4739,2.4735,2.4729,2.4776,2.4776,2.4806,2.4806,2.4807]}]]